TimeEST,TemperatureF,Dew PointF,Humidity,Sea Level PressureIn,VisibilityMPH,Wind Direction,Wind SpeedMPH,Gust SpeedMPH,PrecipitationIn,Events,Conditions,WindDirDegrees,DateUTC
12:15 AM,38.1,33.4,83,30.26,10.0,Calm,Calm,-,N/A,,Clear,0,2012-11-10 05:15:00
12:35 AM,37.9,33.1,83,30.26,10.0,NW,4.6,-,N/A,,Clear,310,2012-11-10 05:35:00
12:55 AM,37.9,32.9,82,30.26,10.0,Calm,Calm,-,N/A,,Clear,0,2012-11-10 05:55:00
1:15 AM,38.7,32.9,80,30.26,10.0,Calm,Calm,-,N/A,,Clear,0,2012-11-10 06:15:00
1:35 AM,37.0,32.0,82,30.26,10.0,Calm,Calm,-,N/A,,Clear,0,2012-11-10 06:35:00
1:55 AM,35.6,32.0,87,30.27,10.0,Calm,Calm,-,N/A,,Clear,0,2012-11-10 06:55:00
2:15 AM,35.4,32.2,88,30.27,10.0,NW,4.6,-,N/A,,Clear,320,2012-11-10 07:15:00
2:35 AM,35.8,32.4,87,30.27,10.0,Calm,Calm,-,N/A,,Clear,0,2012-11-10 07:35:00
2:55 AM,35.8,32.0,86,30.27,10.0,NW,3.5,-,N/A,,Clear,320,2012-11-10 07:55:00
3:15 AM,38.1,32.2,79,30.27,10.0,Calm,Calm,-,N/A,,Clear,0,2012-11-10 08:15:00
3:35 AM,37.2,32.0,81,30.27,10.0,Calm,Calm,-,N/A,,Clear,0,2012-11-10 08:35:00
3:55 AM,37.9,32.0,79,30.27,10.0,Calm,Calm,-,N/A,,Clear,0,2012-11-10 08:55:00
4:15 AM,38.1,32.0,79,30.27,10.0,Calm,Calm,-,N/A,,Clear,0,2012-11-10 09:15:00
4:35 AM,36.0,32.0,86,30.28,10.0,Calm,Calm,-,N/A,,Clear,0,2012-11-10 09:35:00
4:55 AM,33.1,31.1,92,30.29,10.0,Calm,Calm,-,N/A,,Clear,0,2012-11-10 09:55:00
5:15 AM,32.4,31.3,96,30.29,10.0,NW,3.5,-,N/A,,Clear,310,2012-11-10 10:15:00
5:35 AM,34.5,31.8,90,30.30,10.0,NW,4.6,-,N/A,,Clear,320,2012-11-10 10:35:00
5:55 AM,36.0,31.3,83,30.30,10.0,Calm,Calm,-,N/A,,Clear,0,2012-11-10 10:55:00
6:15 AM,35.8,31.5,84,30.30,10.0,Calm,Calm,-,N/A,,Clear,0,2012-11-10 11:15:00
6:35 AM,33.4,31.1,91,30.30,10.0,Calm,Calm,-,N/A,,Clear,0,2012-11-10 11:35:00
6:55 AM,33.4,31.1,91,30.31,10.0,NW,3.5,-,N/A,,Clear,320,2012-11-10 11:55:00
7:35 AM,35.2,31.3,85,30.32,10.0,WNW,4.6,-,N/A,,Clear,290,2012-11-10 12:35:00
7:55 AM,37.4,32.2,81,30.33,10.0,Calm,Calm,-,N/A,,Clear,0,2012-11-10 12:55:00
8:15 AM,41.2,32.7,72,30.34,10.0,Calm,Calm,-,N/A,,Clear,0,2012-11-10 13:15:00
8:35 AM,44.2,32.9,64,30.34,10.0,Calm,Calm,-,N/A,,Clear,0,2012-11-10 13:35:00
8:55 AM,47.1,34.3,61,30.34,10.0,Calm,Calm,-,N/A,,Clear,0,2012-11-10 13:55:00
9:15 AM,49.8,33.8,54,30.35,10.0,Calm,Calm,-,N/A,,Clear,0,2012-11-10 14:15:00
9:35 AM,52.0,35.1,53,30.35,10.0,Calm,Calm,-,N/A,,Clear,0,2012-11-10 14:35:00
9:55 AM,55.0,34.3,46,30.35,10.0,Calm,Calm,-,N/A,,Clear,0,2012-11-10 14:55:00
10:35 AM,58.3,34.7,41,30.36,10.0,South,3.5,-,N/A,,Clear,190,2012-11-10 15:35:00
10:55 AM,60.4,35.6,40,30.35,10.0,SW,4.6,-,N/A,,Clear,230,2012-11-10 15:55:00
11:15 AM,62.1,36.0,38,30.34,10.0,Calm,Calm,-,N/A,,Clear,0,2012-11-10 16:15:00
11:35 AM,63.9,34.3,33,30.34,10.0,Calm,Calm,-,N/A,,Clear,0,2012-11-10 16:35:00
11:55 AM,64.9,33.8,31,30.33,10.0,SSW,3.5,-,N/A,,Clear,200,2012-11-10 16:55:00
12:15 PM,66.0,32.9,29,30.32,10.0,SW,3.5,-,N/A,,Clear,220,2012-11-10 17:15:00
12:35 PM,67.3,33.1,28,30.31,10.0,South,4.6,-,N/A,,Clear,190,2012-11-10 17:35:00
12:55 PM,68.4,34.7,29,30.30,10.0,South,8.1,-,N/A,,Clear,170,2012-11-10 17:55:00
1:15 PM,69.1,34.9,28,30.30,10.0,SW,6.9,-,N/A,,Clear,220,2012-11-10 18:15:00
1:35 PM,69.6,33.8,27,30.29,10.0,South,9.2,-,N/A,,Clear,190,2012-11-10 18:35:00
1:55 PM,70.3,34.2,26,30.29,10.0,SSW,4.6,-,N/A,,Clear,200,2012-11-10 18:55:00
2:15 PM,70.3,32.9,25,30.29,10.0,WSW,3.5,-,N/A,,Clear,240,2012-11-10 19:15:00
2:35 PM,71.6,32.9,24,30.28,10.0,SSW,5.8,-,N/A,,Clear,200,2012-11-10 19:35:00
2:55 PM,71.6,32.4,24,30.28,10.0,South,8.1,-,N/A,,Clear,170,2012-11-10 19:55:00
3:15 PM,71.8,31.6,23,30.29,10.0,SSW,8.1,-,N/A,,Clear,200,2012-11-10 20:15:00
3:35 PM,72.0,32.0,23,30.29,10.0,South,6.9,-,N/A,,Clear,190,2012-11-10 20:35:00
3:55 PM,71.4,32.0,23,30.29,10.0,South,8.1,-,N/A,,Clear,180,2012-11-10 20:55:00
4:15 PM,70.9,32.0,24,30.29,10.0,South,8.1,-,N/A,,Clear,180,2012-11-10 21:15:00
4:35 PM,69.8,31.5,24,30.30,10.0,South,6.9,-,N/A,,Clear,180,2012-11-10 21:35:00
4:55 PM,68.0,30.9,25,30.30,10.0,South,5.8,-,N/A,,Clear,180,2012-11-10 21:55:00
5:15 PM,65.5,30.0,26,30.30,10.0,South,4.6,-,N/A,,Clear,170,2012-11-10 22:15:00
5:35 PM,64.8,31.1,28,30.30,10.0,SSE,4.6,-,N/A,,Clear,160,2012-11-10 22:35:00
5:55 PM,63.5,31.1,30,30.31,10.0,SSE,3.5,-,N/A,,Clear,160,2012-11-10 22:55:00
6:15 PM,63.0,30.9,30,30.31,10.0,SSE,3.5,-,N/A,,Clear,150,2012-11-10 23:15:00
6:35 PM,61.9,31.1,31,30.32,10.0,SSE,3.5,-,N/A,,Clear,150,2012-11-10 23:35:00
6:55 PM,60.8,31.1,33,30.33,10.0,Calm,Calm,-,N/A,,Clear,0,2012-11-10 23:55:00
7:15 PM,59.4,31.1,34,30.34,10.0,SE,3.5,-,N/A,,Clear,140,2012-11-11 00:15:00
7:35 PM,58.6,31.8,36,30.34,10.0,Calm,Calm,-,N/A,,Clear,0,2012-11-11 00:35:00
7:55 PM,56.7,32.0,39,30.34,10.0,Calm,Calm,-,N/A,,Clear,0,2012-11-11 00:55:00
8:15 PM,54.7,32.0,42,30.35,10.0,Calm,Calm,-,N/A,,Clear,0,2012-11-11 01:15:00
8:35 PM,49.6,34.5,56,30.36,10.0,NW,3.5,-,N/A,,Clear,320,2012-11-11 01:35:00
8:55 PM,48.7,35.1,59,30.36,10.0,Calm,Calm,-,N/A,,Clear,0,2012-11-11 01:55:00
9:15 PM,49.3,34.7,57,30.37,10.0,Calm,Calm,-,N/A,,Clear,0,2012-11-11 02:15:00
9:35 PM,50.4,33.8,53,30.37,10.0,Calm,Calm,-,N/A,,Clear,0,2012-11-11 02:35:00
9:55 PM,47.3,34.0,60,30.37,10.0,Calm,Calm,-,N/A,,Clear,0,2012-11-11 02:55:00
10:15 PM,46.0,34.5,64,30.38,10.0,Calm,Calm,-,N/A,,Clear,0,2012-11-11 03:15:00
10:35 PM,45.7,34.0,64,30.38,10.0,Calm,Calm,-,N/A,,Clear,0,2012-11-11 03:35:00
11:15 PM,43.0,35.2,74,30.38,10.0,Calm,Calm,-,N/A,,Clear,0,2012-11-11 04:15:00
11:35 PM,42.6,34.7,74,30.38,10.0,Calm,Calm,-,N/A,,Clear,0,2012-11-11 04:35:00
11:55 PM,42.6,34.9,74,30.38,10.0,Calm,Calm,-,N/A,,Clear,0,2012-11-11 04:55:00